[[{"header":{"parameterUnit":"m.s-1","parameterCategory":1,"la1":30.2991,"la2":30.254,"lo1":-89.0895,"lo2":-89.0444,"dy":0.0017,"dx":0.0017,"nx":28,"ny":28,"refTime":"2025-08-14T21:00:00:Z","depth":0,"parameterNumber":2,"parameterNumberName":"U-component_of_WINDS"},"data":[0,0,0,0,0,0,0,0,0,0,0,0,0,0,0,0,0,0,0,0,0,0,0,0,0,0,0,0,0,0,0,0,0,0,0,0,0,0,0,0,0,0,0,0,0,0,0,0,0,0,0,0,0,0,0,0,0,0,0.2075,0.2077,0,0.2277,0.2279,0.2282,0.2387,0.2387,0.2387,0.2387,0.2594,0.2599,0.2604,0,0,0,0,0,0,0,0,0,0,0,0,0,0.1779,0.1784,0.2075,0.2078,0.208,0.2277,0.228,0.2282,0.2387,0.2387,0.2387,0.2387,0.2592,0.2598,0.2605,0,0,0,0,0,0,0,0,0,0,0,0,0,0.1937,0.1785,0.2075,0.2156,0.2165,0.2276,0.228,0.2283,0.2387,0.2387,0.2387,0.2388,0.259,0.2598,0.2606,0.2651,0,0,0.263,0.2634,0,0,0,0,0,0,0,0,0.1927,0.1947,0.2142,0.2151,0.2161,0.2307,0.2251,0.2406,0.2387,0.2303,0.2387,0.2388,0.2498,0.2514,0.2551,0.2661,0.2669,0.2631,0.2636,0.2639,0.2642,0,0,0,0,0,0,0,0.1916,0.1939,0.2155,0.2144,0.2156,0.2182,0.2205,0.2281,0.2397,0.231,0.2318,0.2341,0.2504,0.2543,0.2557,0.2673,0.2631,0.2638,0.2643,0.2646,0.2828,0.2828,0,0,0,0,0,0,0.1892,0.1929,0.2149,0.2161,0.2043,0.2187,0.2213,0.226,0.2396,0.2417,0.234,0.2345,0.2529,0.2547,0.2564,0.2626,0.2639,0.2647,0.2651,0.2828,0.2828,0.2828,0,0,0,0,0,0,0.1886,0.1911,0.2141,0.2048,0.2079,0.2192,0.2245,0.2264,0.2304,0.2419,0.244,0.2359,0.253,0.2553,0.2629,0.2635,0.265,0.2658,0.2828,0.2828,0.2828,0.2749,0,0,0,0,0,0,0.1877,0.1908,0.1927,0.2047,0.2083,0.2201,0.2245,0.2268,0.2317,0.2325,0.2443,0.2462,0.2532,0.2616,0.2636,0.2646,0.2664,0.2828,0.2828,0.2828,0.2752,0.2746,0.2742,0,0,0,0,0,0.1866,0.1896,0.1927,0.1953,0.2109,0.2201,0.2222,0.2302,0.2317,0.2337,0.2411,0.2459,0.263,0.2623,0.2647,0.2659,0.2828,0.2828,0.2828,0.2754,0.2748,0.2742,0,0,0,0,0,0,0.1774,0.1914,0.1949,0.202,0.2098,0.2219,0.2246,0.2293,0.2368,0.2372,0.2468,0.2493,0.2559,0.2617,0.2606,0.2709,0.2734,0.2739,0.2669,0.2664,0.2659,0.2644,0.2671,0,0,0,0,0,0.1761,0.1825,0.1944,0.1995,0.2032,0.2132,0.2175,0.223,0.2314,0.2348,0.2428,0.2507,0.258,0.2625,0.2698,0.276,0.2787,0.2781,0.2776,0.2771,0.2774,0.2811,0.2809,0.2829,0.2829,0.2829,0,0,0.1737,0.1821,0.1856,0.1978,0.2045,0.2108,0.2159,0.2224,0.2272,0.2358,0.2434,0.2494,0.259,0.2659,0.2693,0.2709,0.2774,0.2771,0.2766,0.2772,0.281,0.2808,0.2807,0.2829,0.2829,0.2829,0,0,0.1725,0.1795,0.1845,0.1911,0.2011,0.2077,0.2089,0.2203,0.2247,0.2325,0.239,0.2448,0.2571,0.2636,0.2685,0.2696,0.2743,0.2717,0.2692,0.2726,0.2724,0.2724,0.2727,0.2727,0.272,0.272,0.2719,0,0.1681,0.178,0.1864,0.1926,0.1977,0.2058,0.2108,0.2168,0.2287,0.2321,0.2336,0.2491,0.2561,0.2646,0.2648,0.2686,0.2702,0.2704,0.2718,0.2718,0.2718,0.2723,0.2724,0.2716,0.2716,0.2717,0.2717,0,0.1721,0.1788,0.1816,0.1929,0.1984,0.2039,0.2132,0.2177,0.2226,0.229,0.2368,0.2455,0.2546,0.257,0.262,0.2662,0.2668,0.27,0.2727,0.2711,0.2717,0.2719,0.271,0.2712,0.2713,0.2714,0,0,0.1657,0.1815,0.1824,0.1876,0.1992,0.2046,0.2104,0.2194,0.223,0.2309,0.236,0.2462,0.2491,0.2547,0.2604,0.2634,0.2636,0.2662,0.2666,0.2654,0.2688,0.2663,0.2663,0.2668,0.2669,0.2669,0.2679,0,0.1661,0.177,0.1848,0.1927,0.1989,0.2067,0.2118,0.2194,0.2255,0.2317,0.2385,0.2455,0.2489,0.2523,0.2556,0.2629,0.2644,0.2629,0.2716,0.2718,0.2689,0.2667,0.2641,0.2647,0.2682,0.2683,0.2683,0,0.168,0.1756,0.1842,0.1951,0.198,0.2024,0.2112,0.217,0.2258,0.2301,0.2362,0.2421,0.2485,0.2506,0.2596,0.2584,0.2624,0.2665,0.2667,0.2678,0.2699,0.2676,0.2651,0.2651,0.2687,0.2687,0.2687,0,0.1623,0.1748,0.1815,0.1857,0.1986,0.2015,0.207,0.2159,0.2207,0.2284,0.2316,0.2399,0.2444,0.2507,0.2586,0.2594,0.2667,0.2695,0.2704,0.2702,0.2716,0.2714,0.2695,0.2742,0.2742,0.2742,0.2742,0,0.1619,0.1668,0.1791,0.1832,0.1889,0.1977,0.2031,0.2093,0.217,0.2224,0.2296,0.2345,0.2447,0.2508,0.257,0.2635,0.2655,0.2691,0.2707,0.2684,0.2679,0.2712,0.2713,0.2742,0.2742,0.2742,0.2742,0,0.1566,0.165,0.1728,0.1844,0.1874,0.1911,0.201,0.2052,0.2117,0.2184,0.2205,0.2307,0.2383,0.2468,0.2572,0.2614,0.2674,0.2697,0.2644,0.2653,0.2657,0.2655,0.2658,0.2663,0.2705,0.2705,0.2705,0,0.1558,0.1597,0.1717,0.1758,0.1811,0.1877,0.1927,0.2015,0.2064,0.2167,0.2196,0.2278,0.2347,0.2464,0.2547,0.2627,0.2653,0.2648,0.2665,0.2641,0.2652,0.2648,0.2652,0.2643,0.2642,0.2641,0.2641,0,0.1533,0.1573,0.1642,0.1726,0.1783,0.1853,0.1926,0.1955,0.2058,0.2109,0.2187,0.2241,0.2347,0.2426,0.2516,0.2573,0.2623,0.2635,0.2641,0.2618,0.2585,0.2603,0.263,0.2634,0.2635,0.2635,0.2636,0.2636,0.1502,0.1541,0.1631,0.1705,0.1769,0.1835,0.1881,0.1951,0.2018,0.2111,0.2159,0.2236,0.2323,0.2449,0.2504,0.2565,0.2582,0.2591,0.2593,0.2594,0.2587,0.2576,0.2582,0.2582,0.2582,0.2583,0.2583,0,0.1481,0.1543,0.1611,0.171,0.1768,0.1811,0.1894,0.1939,0.2007,0.2083,0.215,0.2239,0.2317,0.2405,0.2488,0.252,0.2545,0.2539,0.2537,0.2549,0.2568,0.2554,0.2517,0.2517,0.2517,0.2517,0.2517,0.2517,0.1477,0.1544,0.1594,0.1693,0.1755,0.1831,0.1875,0.1936,0.1997,0.2094,0.2158,0.2216,0.2297,0.2386,0.2458,0.2483,0.2509,0.2496,0.2526,0.2542,0.2548,0.2553,0.254,0.2501,0.2501,0.2502,0.2502,0.2502]},{"header":{"parameterUnit":"m.s-1","parameterCategory":1,"la1":30.2991,"la2":30.254,"lo1":-89.0895,"lo2":-89.0444,"dy":0.0017,"dx":0.0017,"nx":28,"ny":28,"refTime":"2025-08-14T21:00:00:Z","depth":0,"parameterNumber":3,"parameterNumberName":"V-component_of_WINDS"},"data":[0,0,0,0,0,0,0,0,0,0,0,0,0,0,0,0,0,0,0,0,0,0,0,0,0,0,0,0,0,0,0,0,0,0,0,0,0,0,0,0,0,0,0,0,0,0,0,0,0,0,0,0,0,0,0,0,0,0,5.1414,5.1415,0,5.1436,5.1437,5.1437,5.1382,5.138,5.1378,5.1377,5.1396,5.1398,5.14,0,0,0,0,0,0,0,0,0,0,0,0,0,5.1321,5.1323,5.1414,5.1415,5.1415,5.1436,5.1437,5.1437,5.1382,5.138,5.1378,5.1376,5.1395,5.1398,5.14,0,0,0,0,0,0,0,0,0,0,0,0,0,5.1354,5.1324,5.1414,5.139,5.1388,5.1436,5.1437,5.1437,5.1383,5.138,5.1377,5.1375,5.1394,5.1398,5.1401,5.1472,0,0,5.141,5.1412,0,0,0,0,0,0,0,0,5.1353,5.1358,5.1393,5.1392,5.139,5.1404,5.1411,5.1449,5.1383,5.1385,5.1377,5.1374,5.14,5.1403,5.1413,5.1473,5.1474,5.1411,5.1413,5.1414,5.1415,0,0,0,0,0,0,0,5.135,5.1356,5.1423,5.1394,5.1392,5.1377,5.1379,5.1418,5.1407,5.1384,5.138,5.1384,5.1399,5.141,5.1413,5.1474,5.1411,5.1413,5.1415,5.1417,5.1594,5.1597,0,0,0,0,0,0,5.1352,5.1355,5.1422,5.1423,5.1365,5.1381,5.1383,5.1402,5.1406,5.1404,5.1386,5.1381,5.1406,5.1409,5.1413,5.1497,5.1414,5.1417,5.1419,5.1591,5.1595,5.1598,0,0,0,0,0,0,5.135,5.1358,5.1421,5.1388,5.1395,5.1385,5.1407,5.1404,5.1414,5.1408,5.1405,5.1399,5.1404,5.1409,5.1458,5.1497,5.1418,5.1421,5.1588,5.1592,5.1596,5.1666,0,0,0,0,0,0,5.1347,5.1358,5.1386,5.1389,5.1397,5.1467,5.1409,5.1406,5.142,5.1414,5.1419,5.1418,5.1402,5.1454,5.1461,5.15,5.1424,5.1584,5.159,5.1595,5.166,5.1672,5.1682,0,0,0,0,0,5.1344,5.1403,5.1387,5.1396,5.1432,5.1469,5.1474,5.1456,5.1424,5.1451,5.1447,5.1417,5.1492,5.1459,5.1467,5.1508,5.1582,5.1588,5.1594,5.1655,5.167,5.1682,0,0,0,0,0,0,5.1403,5.1403,5.1385,5.1448,5.1459,5.146,5.1494,5.1471,5.1491,5.1484,5.146,5.1461,5.1515,5.1516,5.148,5.1577,5.1531,5.1539,5.1575,5.1588,5.1599,5.1598,5.1426,0,0,0,0,0,5.1423,5.1455,5.1453,5.1508,5.1515,5.1504,5.1519,5.1505,5.1515,5.1519,5.1518,5.1528,5.1554,5.1571,5.1594,5.166,5.166,5.1692,5.1703,5.1712,5.1719,5.1755,5.1769,5.1618,5.1618,5.1618,0,0,5.1465,5.1469,5.1491,5.152,5.1527,5.156,5.1508,5.1544,5.1568,5.1524,5.1571,5.1571,5.158,5.1639,5.1664,5.1641,5.1761,5.172,5.1727,5.173,5.1763,5.1777,5.179,5.1623,5.1622,5.1621,0,0,5.1558,5.1565,5.1612,5.1621,5.1633,5.1625,5.1636,5.1641,5.1639,5.1687,5.1655,5.1682,5.1726,5.1735,5.1745,5.1842,5.1816,5.185,5.1908,5.1943,5.1955,5.1965,5.2,5.2013,5.1858,5.1858,5.1858,0,5.1609,5.1658,5.1639,5.1678,5.1692,5.1655,5.1702,5.1711,5.1729,5.1739,5.1713,5.1769,5.1773,5.1833,5.1857,5.1866,5.1878,5.185,5.1955,5.1965,5.1974,5.2008,5.2021,5.1862,5.1862,5.1861,5.1861,0,5.1719,5.1754,5.179,5.181,5.1828,5.1871,5.1858,5.1878,5.1862,5.1857,5.1905,5.1908,5.1932,5.1945,5.1929,5.2003,5.1988,5.1959,5.1912,5.1993,5.2024,5.2037,5.1868,5.1867,5.1865,5.1864,0,0,5.1849,5.186,5.1874,5.1883,5.1894,5.1919,5.196,5.1985,5.2002,5.2016,5.205,5.2089,5.2062,5.2074,5.2058,5.2089,5.2167,5.2056,5.2056,5.2077,5.2249,5.2271,5.2286,5.2149,5.2152,5.2153,5.2248,0,5.1942,5.2014,5.1999,5.2069,5.21,5.2066,5.2102,5.2112,5.2108,5.2134,5.2129,5.2157,5.212,5.2127,5.2155,5.2151,5.2201,5.2144,5.218,5.2181,5.2179,5.2302,5.2325,5.2414,5.226,5.2262,5.2263,0,5.206,5.208,5.2154,5.2161,5.2173,5.2206,5.2227,5.2252,5.2263,5.2258,5.2272,5.225,5.229,5.2243,5.2298,5.226,5.2273,5.2273,5.2276,5.2279,5.2227,5.2308,5.2442,5.2456,5.2282,5.228,5.2279,0,5.2148,5.2194,5.2244,5.2253,5.2262,5.2286,5.229,5.2298,5.2314,5.2332,5.2342,5.2364,5.2377,5.2394,5.2379,5.2346,5.2436,5.2388,5.2433,5.2433,5.2453,5.2452,5.2591,5.2462,5.2461,5.2461,5.2461,0,5.2253,5.23,5.2284,5.2315,5.2367,5.2348,5.2399,5.2399,5.2407,5.2436,5.2407,5.2436,5.2414,5.2441,5.2429,5.2476,5.2482,5.2478,5.2475,5.2481,5.2482,5.249,5.2483,5.2465,5.2464,5.2463,5.2463,0,5.2361,5.2352,5.2405,5.2409,5.2412,5.2449,5.2452,5.2481,5.2475,5.2514,5.2521,5.2512,5.2542,5.2529,5.256,5.2552,5.2612,5.26,5.261,5.2606,5.2652,5.2648,5.2802,5.2821,5.2679,5.268,5.2681,0,5.2429,5.2464,5.2473,5.2492,5.2499,5.2529,5.2546,5.2528,5.2546,5.2562,5.2588,5.2616,5.2637,5.2685,5.2681,5.2704,5.2693,5.2745,5.2696,5.2702,5.2694,5.2692,5.2696,5.2755,5.2757,5.2758,5.2759,0,5.255,5.2545,5.257,5.2595,5.2616,5.2634,5.2649,5.2666,5.2649,5.2671,5.2702,5.2718,5.2751,5.2778,5.2799,5.2802,5.2778,5.2775,5.2786,5.2793,5.2797,5.2796,5.2637,5.2771,5.277,5.2769,5.2768,5.2768,5.264,5.267,5.2682,5.2712,5.2722,5.2737,5.2765,5.2763,5.2789,5.2815,5.2802,5.2838,5.2848,5.2873,5.288,5.2907,5.2886,5.2903,5.2907,5.2912,5.2918,5.2793,5.2911,5.291,5.291,5.291,5.2909,0,5.2761,5.2767,5.2794,5.2818,5.2841,5.2818,5.2834,5.2855,5.2887,5.2898,5.292,5.2956,5.2982,5.2981,5.3005,5.3027,5.3017,5.3034,5.3032,5.3034,5.2935,5.2923,5.3042,5.3042,5.3042,5.3042,5.3042,5.3042,5.2826,5.2877,5.2872,5.2927,5.2932,5.2968,5.2979,5.2993,5.3003,5.3044,5.3067,5.3066,5.3072,5.3096,5.312,5.3118,5.3129,5.3151,5.3145,5.3053,5.304,5.3028,5.3016,5.3153,5.3153,5.3241,5.3242,5.3243]}]]